Location: El Mouella
(16.4949°N, 9.1594°W)
Time: 01:33:04
(UTC+00:00)

Cosmos 1666 - Pass Details

Date: 02 June 2020
Orbit: 496 x 522 km, 82.5° (Epoch: 13 July)

Event Time Altitude Azimuth Distance (km) Brightness Sun altitude
Rises 19:54:44 0° 348° (NNW) 2,621 6.9 -11.3°
Reaches altitude 10° 19:56:54 10° 343° (NNW) 1,730 6.0 -11.7°
Maximum altitude 20:00:35 51° 267° (W) 645 3.5 -12.5°
Drops below altitude 10° 20:04:14 10° 191° (S) 1,712 5.2 -13.3°
Sets 20:06:23 0° 185° (S) 2,590 6.0 -13.7°
